ZHONGXING-3A

Last updated on Thu Oct 30 2025 00:02:52 GMT+0000 (Coordinated Universal Time)

1 60179U 24122A 25302.23656178 -.00000303 00000+0 00000+0 0 9999 2 60179 0.0458 53.8685 0001325 178.1216 352.6024 1.00268685 4994
UTC large
Height (km)
Speed (km/s)
/
Latitude / Longitude
Inclination (degrees)
Orbital Period (minutes)
Azimuth
Elevation
Range (km)
Doppler Factor

Next 0 passes for location: London (51.5072 / 0.1276)

Sorry there are no passes over London.